This is the latest recevied weather packets stored in our database for station/object IW4DZV-13. If no packets are shown the sender has not sent any weather packets the latest 10 day(s).
| Time | Temp. | Humidity | Pressure | Rain* | Wind** | Luminosity | Snow |
|---|---|---|---|---|---|---|---|
| 1777997759 | 19.44° C | 72% | 1011 hPa | 5.33 mm | - | 90 W/m² | - |
| 1777996859 | 20° C | 71% | 1011 hPa | 5.33 mm | - | 139 W/m² | - |
| 1777995969 | 21.11° C | 69% | 1011.1 hPa | 5.33 mm | - | 95 W/m² | - |
| 1777995074 | 20.56° C | 69% | 1010.9 hPa | 5.33 mm | - | 475 W/m² | - |
| 1777994158 | 19.44° C | 72% | 1010.9 hPa | 5.33 mm | - | 345 W/m² | - |
| 1777993252 | 19.44° C | 72% | 1011.2 hPa | 5.33 mm | - | 227 W/m² | - |
| 1777992361 | 20° C | 71% | 1011.2 hPa | 5.33 mm | - | 244 W/m² | - |
| 1777991452 | 19.44° C | 73% | 1011.3 hPa | 5.33 mm | - | 213 W/m² | - |
| 1777990546 | 18.89° C | 72% | 1011.3 hPa | 5.33 mm | - | 148 W/m² | - |
| 1777989646 | 18.89° C | 73% | 1011.5 hPa | 5.33 mm | - | 323 W/m² | - |
| 1777988744 | 18.89° C | 74% | 1011.8 hPa | 5.33 mm | - | 316 W/m² | - |
| 1777987843 | 18.89° C | 76% | 1011.9 hPa | 5.33 mm | - | 457 W/m² | - |
| 1777986939 | 18.33° C | 78% | 1011.9 hPa | 5.33 mm | - | 313 W/m² | - |
| 1777986036 | 17.78° C | 79% | 1012 hPa | 5.33 mm | - | 229 W/m² | - |
| 1777985137 | 17.78° C | 79% | 1012.3 hPa | 5.33 mm | - | 302 W/m² | - |
| 1777984232 | 17.22° C | 81% | 1012.4 hPa | 5.33 mm | - | 250 W/m² | - |
| 1777983336 | 17.22° C | 83% | 1012.5 hPa | 5.33 mm | - | 313 W/m² | - |
| 1777982429 | 16.67° C | 82% | 1012.6 hPa | 5.33 mm | - | 251 W/m² | - |
| 1777981538 | 16.67° C | 85% | 1012.7 hPa | 5.33 mm | - | 276 W/m² | - |
| 1777980628 | 16.11° C | 85% | 1012.7 hPa | 5.33 mm | - | 250 W/m² | - |
| 1777979733 | 15.56° C | 85% | 1012.8 hPa | 5.33 mm | - | 167 W/m² | - |
| 1777978826 | 15.56° C | 85% | 1012.8 hPa | 5.33 mm | - | 278 W/m² | - |
| 1777977926 | 15.56° C | 84% | 1013 hPa | 5.33 mm | - | 299 W/m² | - |
| 1777977025 | 15° C | 88% | 1013 hPa | 5.33 mm | - | 397 W/m² | - |
| 1777976125 | 15° C | 88% | 1013 hPa | 5.33 mm | - | 243 W/m² | - |
* Rain since midnight (hover to see other rain measurements)
** Current wind speed in m/s (hover to see current wind gust speed)